Weather in Volokovaya

Russia / Nenets Autonomous Okrug     66°29′00″N   48°14′36″E
temp.,
°C
wind,
m/s
gust,
m/s
humid.,
%
clouds,
%
prec.,
mm/h
press.,
hPa
HPBL,
m
12 august, fri
fri1200:00+15wsw7129132 3.7 1003445
03:00+14wsw61296100 3.9 1004569
06:00+13w61091100 0.4 1004630
09:00+16w61077100 0.9 1004811
12:00+16wnw81262100 0.9 10061324
15:00+15nw8106596 1.6 10071321
18:00+12nw7107167 0.3 1009918
21:00+9w48828 0.4 1010137
13 august, sat
sat1300:00+8wsw5128833 0.0 1010238
03:00+9w7148921 0.4 1010440
06:00+9w8148399 0.1 1010732
09:00+10w101479100 0.1 1011899
12:00+11wnw101376100 0.1 10131183
15:00+11wnw91384100 0.9 10141058
18:00+10nw81273100 0.3 10161018
21:00+9wnw71169100 0.3 1017629
14 august, sun
sun1400:00+9nw71169100 0.0 1018631
03:00+6wnw59949 0.0 1019180
06:00+8wnw5886100 0.0 1020522
09:00+12wnw6873100 0.3 1020999
12:00+14w676277 0.7 10201220
15:00+16nw575372 1.1 10201570
18:00+15nw236397 0.3 1019291
21:00+11sw347747 0.4 101963
15 august, mon
mon1500:00+8ssw3486100 0.0 101956
03:00+10ssw3684100 0.0 1018146
06:00+11wsw4787100 0.0 1018260
09:00+12nw4786100 0.0 1019374
12:00+15nw785276 0.0 10201195
15:00+14nw8105113 0.0 10221327
18:00+13nw67614 0.0 10221015
21:00+8wnw488772 0.0 1024125
16 august, tue
tue1600:00+6nw45936 0.0 102581
03:00+6nw349476 0.0 102647
06:00+9wnw24836 0.0 1027187
09:00+14wsw345678 0.0 1026572
12:00+18sw46465 0.0 10251119
15:00+21sw67436 0.0 10241348
18:00+20sw485528 0.0 1023247
21:00+14ssw487914 0.1 102296